STARLINK-36057, 66884

Orbit data source: Space-Track

STARLINK-36057, 66884 is a payload satellite owned by SpaceX/Seattle (US) in LEO that was launched on Thu, 04 Dec 2025 UTC via an FALCON 9 launch vehicle from the Air Force Western Test Range (AFWTR). Payload-class satellites include a variety of spacecraft equipped with specific instruments for various scientific and technological missions. These include communications satellites like Starlink; space stations such as the ISS; scientific satellites like the Hubble; Earth observation satellites from companies like Planet Labs, Umbra, and HawkEye 360; GPS; miniature CubeSats for education and research; and military/defense satellites.

Loading next visibility...
Identifier
66884, 2025-283G
Orbit
LEO
Country
Flag of USUS
Related business
Manufacturer
SpaceX/Seattle
Mission
Operational Commercial Communications
Bus & Motor
STARLINK V2MO, Unknown motor
Mass
575 kg wet, ~530 kg dry
Launch date (UTC)
2025-12-04 (7 months ago)
Launch vehicle
FALCON 9
Launch site
Air Force Western Test Range (AFWTR)
Object type
Payload
Rocket body
Debris
Shape & HBR
Box + 2 Pan, 17.7 m
Radar Cross Section
36.964 m², Large (>1 m²)

Expand to show TLE details & history
Last TLE update: 1 day ago

TLE from 1 day ago
0 STARLINK-36057
1 66884U 25283G   26170.57792722  .00018770  00000-0  56540-3 0  9995
2 66884  53.1598 270.2093 0001275 101.1806 258.9340 15.34392124 31458
Epoch: 2026-06-19T13:52Z
TLE epoch observation values (Epoch: 2026-06-19T13:52:12.911Z)
Latitude
-0.00004°
Longitude
154.35058°
Altitude
463.795 km
Speed
7.636 km/s
True Right ascension
18h 00m 50s
True Declination
0° 00' 00"
Sunlit
Object was in full shadow at epoch
Visualization orbit readout
Latitude
Unknown
Longitude
Unknown
Altitude
Unknown
Speed
Unknown
Apparent Right ascension
Unknown
Apparent Declination
Unknown
Sunlit
N/A
Visualization observer readout
Local Sidereal Time
07:17:38
Azimuth
Unknown
Elevation
Unknown
Doppler factor
Unknown
Orbital elements
Apogee altitude
463.856 km
Perigee altitude
462.111 km
Semi-major axis
6,841.121 km
Eccentricity
0.00013
Inclination
53.1598°
RAAN
270.2093°
Arg. of periapsis
101.1806°
True anomaly
258.91966°
Mean anomaly
258.934°
Eccentric anomaly
258.92683°
Mean motion
3.83577 °/min
Orbital period
93.85 mins
BSTAR
0.0005654
Loading maneuver chart data...
Computing Atmospheric mass density...
Loading historical data...
Loading historical data...
Loading historical data...
Loading historical data...
Loading historical data...
Loading historical data...
Loading historical data...

Documentation

Showing up to 5 results
|